This demonstration page uses our WeatherBlox Daily Observations layout. Learn more.

Left ArrowRight Arrow

34.02893, -84.19858

Hourly Observations for January 9, 2018

Temp ( °F °C ) Dew Point ( °F °C ) Humidity (%) Winds ( mph kmh ) Pressure ( in mb ) Visibility ( mi km ) Precip ( " mm )
12:26 am 00:26 Cloudy with Mist and Fog 38 3.3 37 2.8 97 97 VRB 3 6 30.24 1024 5 8 0.00 0.00
12:53 am 00:53 Cloudy with Mist and Fog 38 3.3 36 2.2 93 93 Calm 30.24 1024 4 6 0.00 0.00
1:53 am 01:53 Cloudy with Mist and Fog 38 3.3 36 2.2 93 93 Calm 30.24 1024 4 6 0.00 0.00
2:53 am 02:53 Clear with Mist and Fog 36 2.2 36 2.2 100 100 Calm 30.23 1024 3 5 0.00 0.00
3:53 am 03:53 Mostly Clear with Mist and Fog 38 3.3 37 2.8 97 97 Calm 30.22 1024 6 10 0.00 0.00
4:27 am 04:27 Mostly Cloudy with Mist and Fog 39 3.9 37 2.8 93 93 Calm 30.21 1023 6 10 0.00 0.00
4:53 am 04:53 Cloudy 40 4.4 38 3.3 93 93 ENE 3 6 30.23 1024 7 11 0.00 0.00
5:53 am 05:53 Cloudy 41 5 39 3.9 93 93 Calm 30.23 1024 8 13 0.00 0.00
6:10 am 06:10 Cloudy 42 5.6 40 4.4 92 92 VRB 3 6 30.21 1023 9 14 0.00 0.00
6:42 am 06:42 Cloudy 42 5.6 40 4.4 92 92 Calm 30.24 1024 10 16 0.00 0.00
6:53 am 06:53 Cloudy 43 6.1 40 4.4 89 89 ENE 3 6 30.23 1024 10 16 0.00 0.00
7:24 am 07:24 Cloudy 43 6.1 40 4.4 89 89 NE 3 6 30.24 1024 10 16 0.00 0.00
7:53 am 07:53 Cloudy 44 6.7 41 5 89 89 N 5 7 30.26 1025 10 16 0.00 0.00
8:53 am 08:53 Cloudy 45 7.2 42 5.6 90 90 NE 5 7 30.28 1025 7 11 0.00 0.00
9:00 am 09:00 Cloudy 45 7.2 42 5.6 90 90 Calm 30.27 1025 7 11 0.00 0.00
9:53 am 09:53 Cloudy with Mist and Fog 48 8.9 44 6.7 86 86 VRB 3 6 30.29 1026 6 10 0.00 0.00
10:53 am 10:53 Cloudy 51 10.6 46 7.8 83 83 ENE 6 9 30.30 1026 10 16 0.00 0.00
11:01 am 11:01 Cloudy 50 10 46 7.8 86 86 VRB 6 9 30.30 1026 10 16 0.00 0.00
11:53 am 11:53 Cloudy with Mist and Fog 51 10.6 48 8.9 89 89 ESE 5 7 30.29 1026 4 6 0.00 0.00
12:05 pm 12:05 Cloudy 53 11.7 48 8.9 83 83 Calm 30.27 1025 10 16 0.00 0.00
12:20 pm 12:20 Cloudy with Haze 53 11.7 48 8.9 83 83 SE 5 7 30.24 1024 2 3 0.00 0.00
12:28 pm 12:28 Cloudy with Haze 54 12.2 49 9.4 83 83 ENE 5 7 30.24 1024 6 10 0.00 0.00
12:53 pm 12:53 Cloudy 55 12.8 50 10 83 83 Calm 30.24 1024 10 16 0.00 0.00
1:01 pm 13:01 Cloudy 56 13.3 50 10 81 81 VRB 3 6 30.24 1024 10 16 0.00 0.00
1:48 pm 13:48 Partly Cloudy 61 16 52 11 72 72 VRB 6 9 30.21 1023 10 16 0.00 0.00
1:53 pm 13:53 Mostly Sunny 61 16.1 51 10.6 70 70 VRB 3 6 30.21 1023 10 16 0.00 0.00
2:53 pm 14:53 Mostly Sunny 63 17.2 51 10.6 65 65 ENE 7 11 30.19 1022 10 16 0.00 0.00
3:53 pm 15:53 Cloudy 63 17.2 50 10 63 63 VRB 6 9 30.19 1022 10 16 0.00 0.00
4:53 pm 16:53 Sunny 62 16.7 50 10 65 65 NE 5 7 30.19 1023 10 16 0.00 0.00
5:53 pm 17:53 Clear 59 15 49 9.4 69 69 E 3 6 30.21 1023 10 16 0.00 0.00
6:53 pm 18:53 Clear 50 10 46 7.8 86 86 Calm 30.22 1024 10 16 0.00 0.00
7:53 pm 19:53 Clear 48 8.9 46 7.8 93 93 ENE 3 6 30.23 1024 10 16 0.00 0.00
8:53 pm 20:53 Partly Cloudy 53 11.7 48 8.9 83 83 ENE 5 7 30.24 1024 10 16 0.00 0.00
9:53 pm 21:53 Partly Cloudy 52 11.1 48 8.9 86 86 Calm 30.24 1024 10 16 0.00 0.00
10:53 pm 22:53 Cloudy 51 10.6 48 8.9 89 89 Calm 30.24 1024 10 16 0.00 0.00
11:39 pm 23:39 Cloudy 53 11.7 48 8.9 83 83 Calm 30.24 1024 10 16 0.00 0.00
11:53 pm 23:53 Cloudy 53 11.7 48 8.9 83 83 Calm 30.23 1024 10 16 0.00 0.00

Powered by AerisWeather